| time (UTC) | temp F | wind direction | speed MPH | gust MPH | rain 1hr in | rain 24hr in | rain mn in | humidity % | barometer mb |
| 20260504120247 | 57 | 109 | 1.0 | 8.0 | 0.00 | 0.00 | 0.00 | 51 | 913.6 |
| 20260504120145 | 57 | 126 | 1.0 | 8.0 | 0.00 | 0.00 | 0.00 | 51 | 913.6 |
| 20260504110715 | 58 | 146 | 0.0 | 3.0 | 0.00 | 0.00 | 0.00 | 46 | 913.4 |
| 20260504110608 | 58 | 139 | 0.0 | 3.0 | 0.00 | 0.00 | 0.00 | 46 | 913.4 |
| 20260504110504 | 58 | 125 | 0.0 | 3.0 | 0.00 | 0.00 | 0.00 | 46 | 913.4 |
| 20260504110357 | 59 | 132 | 0.0 | 3.0 | 0.00 | 0.00 | 0.00 | 46 | 913.4 |
| 20260504110250 | 59 | 132 | 0.0 | 1.0 | 0.00 | 0.00 | 0.00 | 45 | 913.4 |
| 20260504110143 | 59 | 130 | 0.0 | 1.0 | 0.00 | 0.00 | 0.00 | 45 | 913.4 |
| 20260504100515 | 61 | 110 | 1.0 | 9.0 | 0.00 | 0.00 | 0.00 | 42 | 913.3 |
| 20260504100413 | 61 | 111 | 1.0 | 9.0 | 0.00 | 0.00 | 0.00 | 41 | 913.2 |
| 20260504100310 | 61 | 82 | 1.0 | 9.0 | 0.00 | 0.00 | 0.00 | 41 | 913.2 |
| 20260504100208 | 61 | 99 | 1.0 | 9.0 | 0.00 | 0.00 | 0.00 | 41 | 913.2 |
| 20260504081927 | 64 | 97 | 3.0 | 10.0 | 0.00 | 0.00 | 0.00 | 33 | 913.5 |
| 20260504081820 | 64 | 92 | 3.0 | 10.0 | 0.00 | 0.00 | 0.00 | 33 | 913.4 |
| 20260504081718 | 64 | 74 | 3.0 | 10.0 | 0.00 | 0.00 | 0.00 | 33 | 913.4 |
| 20260504081349 | 64 | 86 | 2.0 | 9.0 | 0.00 | 0.00 | 0.00 | 33 | 913.4 |
| 20260504081243 | 64 | 124 | 2.0 | 9.0 | 0.00 | 0.00 | 0.00 | 32 | 913.4 |
| 20260504081140 | 64 | 96 | 2.0 | 8.0 | 0.00 | 0.00 | 0.00 | 32 | 913.4 |
| 20260504081034 | 64 | 106 | 2.0 | 8.0 | 0.00 | 0.00 | 0.00 | 32 | 913.4 |
| 20260504080928 | 64 | 109 | 2.0 | 8.0 | 0.00 | 0.00 | 0.00 | 32 | 913.4 |
| 20260504080821 | 64 | 113 | 3.0 | 8.0 | 0.00 | 0.00 | 0.00 | 32 | 913.3 |
| 20260504080717 | 64 | 93 | 3.0 | 8.0 | 0.00 | 0.00 | 0.00 | 31 | 913.4 |
| 20260504080614 | 64 | 91 | 3.0 | 8.0 | 0.00 | 0.00 | 0.00 | 31 | 913.4 |
| 20260504080507 | 64 | 88 | 3.0 | 10.0 | 0.00 | 0.00 | 0.00 | 31 | 913.4 |
| 20260504080400 | 64 | 82 | 3.0 | 10.0 | 0.00 | 0.00 | 0.00 | 31 | 913.3 |
| 20260504070214 | 67 | 106 | 2.0 | 7.0 | 0.00 | 0.00 | 0.00 | 23 | 912.6 |
| 20260504070112 | 68 | 113 | 1.0 | 6.0 | 0.00 | 0.00 | 0.00 | 23 | 912.6 |
| 20260504060147 | 69 | 126 | 0.0 | 4.0 | 0.00 | 0.00 | 0.00 | 30 | 912.0 |
| 20260504050501 | 71 | 143 | 0.0 | 0.0 | 0.00 | 0.00 | 0.00 | 26 | 912.3 |
| 20260504050357 | 71 | 143 | 0.0 | 1.0 | 0.00 | 0.00 | 0.00 | 26 | 912.2 |
| 20260504045923 | 71 | 143 | 0.0 | 2.0 | 0.00 | 0.00 | 0.00 | 26 | 912.3 |
| 20260504045820 | 71 | 141 | 0.0 | 2.0 | 0.00 | 0.00 | 0.00 | 26 | 912.3 |
| 20260504045714 | 71 | 141 | 0.0 | 2.0 | 0.00 | 0.00 | 0.00 | 26 | 912.3 |
| 20260504045352 | 72 | 142 | 0.0 | 2.0 | 0.00 | 0.00 | 0.00 | 26 | 912.2 |
| 20260504045250 | 72 | 134 | 0.0 | 2.0 | 0.00 | 0.00 | 0.00 | 26 | 912.2 |
| 20260504045145 | 72 | 128 | 0.0 | 2.0 | 0.00 | 0.00 | 0.00 | 26 | 912.2 |
| 20260504045039 | 72 | 93 | 0.0 | 2.0 | 0.00 | 0.00 | 0.00 | 26 | 912.2 |
| 20260504044932 | 72 | 98 | 0.0 | 0.0 | 0.00 | 0.00 | 0.00 | 26 | 912.2 |
| 20260504044826 | 72 | 105 | 0.0 | 0.0 | 0.00 | 0.00 | 0.00 | 26 | 912.2 |
| 20260504044722 | 72 | 105 | 0.0 | 0.0 | 0.00 | 0.00 | 0.00 | 26 | 912.1 |
| 20260504044354 | 72 | 105 | 0.0 | 0.0 | 0.00 | 0.00 | 0.00 | 25 | 912.1 |
| 20260504044250 | 72 | 105 | 0.0 | 1.0 | 0.00 | 0.00 | 0.00 | 25 | 912.2 |
| 20260504044145 | 72 | 105 | 0.0 | 1.0 | 0.00 | 0.00 | 0.00 | 26 | 912.1 |
| 20260504044041 | 72 | 87 | 0.0 | 1.0 | 0.00 | 0.00 | 0.00 | 26 | 912.2 |
| 20260504043936 | 72 | 88 | 0.0 | 1.0 | 0.00 | 0.00 | 0.00 | 26 | 912.1 |
| 20260504043834 | 72 | 87 | 0.0 | 1.0 | 0.00 | 0.00 | 0.00 | 25 | 912.1 |
| 20260504043731 | 72 | 87 | 0.0 | 1.0 | 0.00 | 0.00 | 0.00 | 25 | 912.2 |
| 20260504043628 | 72 | 89 | 0.0 | 1.0 | 0.00 | 0.00 | 0.00 | 25 | 912.2 |
| 20260504043525 | 72 | 89 | 0.0 | 1.0 | 0.00 | 0.00 | 0.00 | 25 | 912.2 |
| 20260504043202 | 73 | 89 | 0.0 | 0.0 | 0.00 | 0.00 | 0.00 | 25 | 912.3 |
| 20260504043057 | 73 | 89 | 0.0 | 0.0 | 0.00 | 0.00 | 0.00 | 25 | 912.2 |
| 20260504042955 | 73 | 89 | 0.0 | 0.0 | 0.00 | 0.00 | 0.00 | 25 | 912.2 |
| 20260504042847 | 73 | 89 | 0.0 | 0.0 | 0.00 | 0.00 | 0.00 | 25 | 912.2 |
| 20260504042739 | 73 | 77 | 0.0 | 2.0 | 0.00 | 0.00 | 0.00 | 25 | 912.1 |
| 20260504042634 | 73 | 78 | 0.0 | 2.0 | 0.00 | 0.00 | 0.00 | 25 | 912.1 |
| 20260504042530 | 73 | 76 | 0.0 | 2.0 | 0.00 | 0.00 | 0.00 | 24 | 912.1 |
| 20260504042424 | 73 | 76 | 0.0 | 2.0 | 0.00 | 0.00 | 0.00 | 25 | 912.0 |
| 20260504042319 | 73 | 76 | 0.0 | 2.0 | 0.00 | 0.00 | 0.00 | 25 | 912.0 |
| 20260504042216 | 73 | 87 | 0.0 | 2.0 | 0.00 | 0.00 | 0.00 | 26 | 912.1 |
| 20260504042114 | 73 | 54 | 0.0 | 0.0 | 0.00 | 0.00 | 0.00 | 26 | 912.1 |
| 20260504041531 | 73 | 155 | 0.0 | 4.0 | 0.00 | 0.00 | 0.00 | 26 | 912.1 |
| 20260504041424 | 73 | 155 | 0.0 | 4.0 | 0.00 | 0.00 | 0.00 | 26 | 912.1 |
| 20260504041321 | 73 | 179 | 0.0 | 4.0 | 0.00 | 0.00 | 0.00 | 26 | 912.0 |
| 20260504041218 | 73 | 150 | 0.0 | 4.0 | 0.00 | 0.00 | 0.00 | 26 | 912.0 |
| 20260504041114 | 73 | 120 | 0.0 | 4.0 | 0.00 | 0.00 | 0.00 | 22 | 912.0 |
| 20260504041011 | 73 | 90 | 0.0 | 4.0 | 0.00 | 0.00 | 0.00 | 22 | 912.0 |
| 20260504040647 | 74 | 96 | 0.0 | 3.0 | 0.00 | 0.00 | 0.00 | 22 | 912.0 |
| 20260504040543 | 74 | 86 | 0.0 | 3.0 | 0.00 | 0.00 | 0.00 | 22 | 911.9 |
| 20260504040436 | 74 | 80 | 0.0 | 3.0 | 0.00 | 0.00 | 0.00 | 21 | 911.9 |
| 20260504040329 | 74 | 81 | 0.0 | 3.0 | 0.00 | 0.00 | 0.00 | 21 | 911.8 |
| 20260504040222 | 74 | 78 | 0.0 | 3.0 | 0.00 | 0.00 | 0.00 | 21 | 911.8 |
| 20260504040115 | 74 | 86 | 0.0 | 3.0 | 0.00 | 0.00 | 0.00 | 21 | 911.8 |
| 20260504035755 | 74 | 69 | 0.0 | 3.0 | 0.00 | 0.00 | 0.00 | 19 | 911.6 |
| 20260504035649 | 74 | 59 | 0.0 | 3.0 | 0.00 | 0.00 | 0.00 | 19 | 911.5 |
| 20260504035547 | 74 | 57 | 0.0 | 3.0 | 0.00 | 0.00 | 0.00 | 18 | 911.5 |
| 20260504035443 | 74 | 66 | 0.0 | 3.0 | 0.00 | 0.00 | 0.00 | 18 | 911.5 |
| 20260504035337 | 74 | 68 | 0.0 | 3.0 | 0.00 | 0.00 | 0.00 | 18 | 911.4 |
| 20260504035013 | 74 | 68 | 0.0 | 3.0 | 0.00 | 0.00 | 0.00 | 18 | 911.4 |
| 20260504034908 | 75 | 63 | 0.0 | 3.0 | 0.00 | 0.00 | 0.00 | 20 | 911.4 |
| 20260504034804 | 75 | 46 | 0.0 | 3.0 | 0.00 | 0.00 | 0.00 | 19 | 911.4 |
| 20260504034657 | 75 | 46 | 0.0 | 3.0 | 0.00 | 0.00 | 0.00 | 19 | 911.4 |
| 20260504034551 | 75 | 132 | 0.0 | 1.0 | 0.00 | 0.00 | 0.00 | 19 | 911.5 |
| 20260504034444 | 75 | 158 | 0.0 | 1.0 | 0.00 | 0.00 | 0.00 | 19 | 911.5 |
| 20260504034336 | 75 | 158 | 0.0 | 1.0 | 0.00 | 0.00 | 0.00 | 19 | 911.4 |
| 20260504034230 | 75 | 157 | 0.0 | 1.0 | 0.00 | 0.00 | 0.00 | 19 | 911.4 |
| 20260504034122 | 75 | 157 | 0.0 | 1.0 | 0.00 | 0.00 | 0.00 | 19 | 911.4 |
| 20260504033758 | 75 | 134 | 0.0 | 2.0 | 0.00 | 0.00 | 0.00 | 18 | 911.3 |
| 20260504033655 | 75 | 134 | 0.0 | 2.0 | 0.00 | 0.00 | 0.00 | 18 | 911.3 |
| 20260504033548 | 75 | 167 | 0.0 | 2.0 | 0.00 | 0.00 | 0.00 | 18 | 911.3 |
| 20260504033444 | 75 | 169 | 0.0 | 2.0 | 0.00 | 0.00 | 0.00 | 18 | 911.3 |
| 20260504033341 | 75 | 169 | 0.0 | 2.0 | 0.00 | 0.00 | 0.00 | 17 | 911.3 |
| 20260504033235 | 75 | 119 | 0.0 | 1.0 | 0.00 | 0.00 | 0.00 | 18 | 911.2 |
| 20260504033130 | 76 | 144 | 0.0 | 1.0 | 0.00 | 0.00 | 0.00 | 17 | 911.2 |
| 20260504033025 | 76 | 144 | 0.0 | 1.0 | 0.00 | 0.00 | 0.00 | 17 | 911.2 |
| 20260504032702 | 76 | 129 | 0.0 | 1.0 | 0.00 | 0.00 | 0.00 | 17 | 911.0 |
| 20260504032559 | 76 | 184 | 0.0 | 1.0 | 0.00 | 0.00 | 0.00 | 18 | 911.0 |
| 20260504032457 | 76 | 130 | 0.0 | 0.0 | 0.00 | 0.00 | 0.00 | 17 | 911.1 |
| 20260504032350 | 76 | 130 | 0.0 | 0.0 | 0.00 | 0.00 | 0.00 | 18 | 911.0 |
| 20260504032247 | 76 | 130 | 0.0 | 0.0 | 0.00 | 0.00 | 0.00 | 18 | 910.9 |
| 20260504031917 | 76 | 128 | 0.0 | 3.0 | 0.00 | 0.00 | 0.00 | 17 | 910.7 |
| 20260504031812 | 76 | 126 | 0.0 | 3.0 | 0.00 | 0.00 | 0.00 | 17 | 910.6 |
| 20260504031706 | 76 | 146 | 0.0 | 3.0 | 0.00 | 0.00 | 0.00 | 17 | 910.6 |
| 20260504031602 | 76 | 146 | 0.0 | 3.0 | 0.00 | 0.00 | 0.00 | 17 | 910.6 |
| 20260504031458 | 76 | 89 | 0.0 | 3.0 | 0.00 | 0.00 | 0.00 | 17 | 910.6 |
| 20260504031351 | 77 | 87 | 0.0 | 3.0 | 0.00 | 0.00 | 0.00 | 17 | 910.5 |
| 20260504031244 | 77 | 87 | 0.0 | 3.0 | 0.00 | 0.00 | 0.00 | 17 | 910.5 |
| 20260504030921 | 77 | 128 | 0.0 | 0.0 | 0.00 | 0.00 | 0.00 | 17 | 910.4 |
| 20260504030818 | 77 | 128 | 0.0 | 0.0 | 0.00 | 0.00 | 0.00 | 17 | 910.4 |
| 20260504030456 | 77 | 128 | 0.0 | 1.0 | 0.00 | 0.00 | 0.00 | 17 | 910.5 |
| 20260504030134 | 77 | 163 | 0.0 | 0.0 | 0.00 | 0.00 | 0.00 | 17 | 910.5 |
| 20260504030030 | 77 | 163 | 0.0 | 0.0 | 0.00 | 0.00 | 0.00 | 17 | 910.4 |
| 20260504025925 | 77 | 163 | 0.0 | 3.0 | 0.00 | 0.00 | 0.00 | 17 | 910.4 |
| 20260504025819 | 77 | 163 | 0.0 | 3.0 | 0.00 | 0.00 | 0.00 | 17 | 910.5 |
| 20260504025457 | 77 | 180 | 1.0 | 2.0 | 0.00 | 0.00 | 0.00 | 16 | 910.4 |
| 20260504025350 | 78 | 167 | 1.0 | 2.0 | 0.00 | 0.00 | 0.00 | 16 | 910.4 |
| 20260504025245 | 78 | 178 | 1.0 | 0.0 | 0.00 | 0.00 | 0.00 | 16 | 910.3 |
| 20260504025139 | 78 | 178 | 1.0 | 5.0 | 0.00 | 0.00 | 0.00 | 16 | 910.3 |
| 20260504024812 | 78 | 215 | 2.0 | 9.0 | 0.00 | 0.00 | 0.00 | 16 | 910.4 |
| 20260504024705 | 78 | 211 | 2.0 | 9.0 | 0.00 | 0.00 | 0.00 | 16 | 910.3 |
| 20260504024558 | 78 | 151 | 2.0 | 9.0 | 0.00 | 0.00 | 0.00 | 16 | 910.3 |
| 20260504024456 | 78 | 204 | 2.0 | 9.0 | 0.00 | 0.00 | 0.00 | 16 | 910.3 |
| 20260504024349 | 78 | 186 | 2.0 | 9.0 | 0.00 | 0.00 | 0.00 | 16 | 910.3 |
| 20260504024242 | 78 | 180 | 3.0 | 9.0 | 0.00 | 0.00 | 0.00 | 16 | 910.2 |
| 20260504023216 | 79 | 157 | 3.0 | 12.0 | 0.00 | 0.00 | 0.00 | 15 | 910.2 |
| 20260504023109 | 79 | 194 | 3.0 | 12.0 | 0.00 | 0.00 | 0.00 | 15 | 910.2 |
| 20260504023001 | 79 | 196 | 4.0 | 12.0 | 0.00 | 0.00 | 0.00 | 15 | 910.2 |
| 20260504022636 | 79 | 196 | 4.0 | 12.0 | 0.00 | 0.00 | 0.00 | 15 | 910.2 |
| 20260504022529 | 79 | 175 | 4.0 | 12.0 | 0.00 | 0.00 | 0.00 | 15 | 910.1 |
| 20260504022202 | 79 | 191 | 4.0 | 12.0 | 0.00 | 0.00 | 0.00 | 15 | 910.1 |
| 20260504021833 | 79 | 186 | 4.0 | 9.0 | 0.00 | 0.00 | 0.00 | 15 | 910.1 |
| 20260504021727 | 80 | 184 | 5.0 | 9.0 | 0.00 | 0.00 | 0.00 | 15 | 910.0 |
| 20260504021622 | 80 | 159 | 5.0 | 13.0 | 0.00 | 0.00 | 0.00 | 15 | 910.1 |
| 20260504021037 | 80 | 199 | 6.0 | 13.0 | 0.00 | 0.00 | 0.00 | 15 | 910.0 |
| 20260504020714 | 80 | 223 | 6.0 | 14.0 | 0.00 | 0.00 | 0.00 | 15 | 910.0 |
| 20260504020607 | 80 | 206 | 6.0 | 14.0 | 0.00 | 0.00 | 0.00 | 15 | 910.0 |
| 20260504020503 | 81 | 186 | 6.0 | 14.0 | 0.00 | 0.00 | 0.00 | 15 | 910.0 |
| 20260504020136 | 81 | 172 | 6.0 | 14.0 | 0.00 | 0.00 | 0.00 | 15 | 910.0 |
| 20260504015809 | 81 | 209 | 5.0 | 14.0 | 0.00 | 0.00 | 0.00 | 15 | 909.9 |
| 20260504015442 | 81 | 182 | 5.0 | 14.0 | 0.00 | 0.00 | 0.00 | 15 | 909.9 |
| 20260504015335 | 82 | 186 | 6.0 | 14.0 | 0.00 | 0.00 | 0.00 | 15 | 909.9 |
| 20260504015232 | 82 | 229 | 6.0 | 14.0 | 0.00 | 0.00 | 0.00 | 15 | 909.9 |
| 20260504015127 | 82 | 162 | 6.0 | 14.0 | 0.00 | 0.00 | 0.00 | 15 | 909.9 |
| 20260504015022 | 82 | 176 | 6.0 | 14.0 | 0.00 | 0.00 | 0.00 | 15 | 910.0 |
| 20260504014917 | 82 | 188 | 6.0 | 14.0 | 0.00 | 0.00 | 0.00 | 15 | 909.9 |
| 20260504014814 | 82 | 180 | 6.0 | 14.0 | 0.00 | 0.00 | 0.00 | 15 | 909.9 |
| 20260504014711 | 82 | 188 | 6.0 | 14.0 | 0.00 | 0.00 | 0.00 | 15 | 909.9 |
| 20260504014607 | 82 | 186 | 7.0 | 14.0 | 0.00 | 0.00 | 0.00 | 15 | 909.9 |
| 20260504014459 | 82 | 203 | 7.0 | 14.0 | 0.00 | 0.00 | 0.00 | 15 | 909.9 |
| 20260504014357 | 82 | 218 | 7.0 | 14.0 | 0.00 | 0.00 | 0.00 | 15 | 909.9 |
| 20260504014250 | 83 | 185 | 7.0 | 14.0 | 0.00 | 0.00 | 0.00 | 15 | 909.8 |
| 20260504014143 | 83 | 217 | 7.0 | 14.0 | 0.00 | 0.00 | 0.00 | 15 | 909.8 |
| 20260504014040 | 83 | 194 | 6.0 | 14.0 | 0.00 | 0.00 | 0.00 | 15 | 909.8 |
| 20260504013934 | 83 | 211 | 6.0 | 14.0 | 0.00 | 0.00 | 0.00 | 15 | 909.8 |
| 20260504013832 | 83 | 207 | 6.0 | 15.0 | 0.00 | 0.00 | 0.00 | 15 | 909.8 |
| 20260504013729 | 83 | 222 | 6.0 | 15.0 | 0.00 | 0.00 | 0.00 | 15 | 909.7 |
| 20260504013623 | 83 | 200 | 6.0 | 15.0 | 0.00 | 0.00 | 0.00 | 15 | 909.8 |
| 20260504013520 | 83 | 171 | 5.0 | 15.0 | 0.00 | 0.00 | 0.00 | 15 | 909.8 |
| 20260504013414 | 83 | 158 | 5.0 | 15.0 | 0.00 | 0.00 | 0.00 | 15 | 909.8 |
| 20260504013310 | 83 | 198 | 5.0 | 15.0 | 0.00 | 0.00 | 0.00 | 15 | 909.7 |
| 20260504013203 | 84 | 203 | 6.0 | 15.0 | 0.00 | 0.00 | 0.00 | 15 | 909.7 |
| 20260504013100 | 84 | 181 | 6.0 | 15.0 | 0.00 | 0.00 | 0.00 | 15 | 909.8 |
| 20260504012957 | 84 | 188 | 6.0 | 15.0 | 0.00 | 0.00 | 0.00 | 15 | 909.7 |
| 20260504012849 | 84 | 202 | 6.0 | 15.0 | 0.00 | 0.00 | 0.00 | 15 | 909.7 |
| 20260504012746 | 84 | 217 | 6.0 | 15.0 | 0.00 | 0.00 | 0.00 | 15 | 909.7 |
| 20260504012640 | 84 | 221 | 6.0 | 15.0 | 0.00 | 0.00 | 0.00 | 15 | 909.8 |
| 20260504012534 | 84 | 205 | 6.0 | 15.0 | 0.00 | 0.00 | 0.00 | 15 | 909.7 |
| 20260504012428 | 84 | 205 | 6.0 | 15.0 | 0.00 | 0.00 | 0.00 | 15 | 909.8 |
| 20260504012325 | 84 | 184 | 6.0 | 15.0 | 0.00 | 0.00 | 0.00 | 15 | 909.7 |
| 20260504012218 | 84 | 188 | 6.0 | 15.0 | 0.00 | 0.00 | 0.00 | 15 | 909.7 |
| 20260504012113 | 84 | 203 | 5.0 | 15.0 | 0.00 | 0.00 | 0.00 | 15 | 909.7 |
| 20260504012006 | 84 | 186 | 5.0 | 15.0 | 0.00 | 0.00 | 0.00 | 15 | 909.6 |
| 20260504011902 | 84 | 202 | 4.0 | 15.0 | 0.00 | 0.00 | 0.00 | 14 | 909.6 |
| 20260504011543 | 85 | 196 | 3.0 | 11.0 | 0.00 | 0.00 | 0.00 | 15 | 909.6 |
| 20260504011437 | 85 | 176 | 3.0 | 11.0 | 0.00 | 0.00 | 0.00 | 14 | 909.5 |
| 20260504011330 | 84 | 194 | 4.0 | 16.0 | 0.00 | 0.00 | 0.00 | 14 | 909.6 |
| 20260504011006 | 84 | 200 | 6.0 | 16.0 | 0.00 | 0.00 | 0.00 | 13 | 909.6 |
| 20260504010903 | 84 | 146 | 6.0 | 16.0 | 0.00 | 0.00 | 0.00 | 13 | 909.6 |
| 20260504010541 | 84 | 187 | 8.0 | 16.0 | 0.00 | 0.00 | 0.00 | 14 | 909.8 |
| 20260504010433 | 84 | 189 | 9.0 | 16.0 | 0.00 | 0.00 | 0.00 | 14 | 909.7 |
| 20260504010329 | 84 | 215 | 8.0 | 16.0 | 0.00 | 0.00 | 0.00 | 14 | 909.8 |
| 20260504010223 | 84 | 218 | 8.0 | 16.0 | 0.00 | 0.00 | 0.00 | 14 | 909.8 |
| 20260504005859 | 84 | 196 | 8.0 | 16.0 | 0.00 | 0.00 | 0.00 | 14 | 909.8 |
| 20260504005753 | 84 | 212 | 8.0 | 16.0 | 0.00 | 0.00 | 0.00 | 14 | 909.8 |
| 20260504005432 | 84 | 232 | 7.0 | 16.0 | 0.00 | 0.00 | 0.00 | 14 | 909.9 |
| 20260504005329 | 84 | 200 | 7.0 | 18.0 | 0.00 | 0.00 | 0.00 | 14 | 909.9 |
| 20260504005227 | 84 | 186 | 7.0 | 18.0 | 0.00 | 0.00 | 0.00 | 14 | 909.9 |
| 20260504005120 | 84 | 195 | 7.0 | 18.0 | 0.00 | 0.00 | 0.00 | 14 | 910.0 |
| 20260504005014 | 84 | 162 | 7.0 | 18.0 | 0.00 | 0.00 | 0.00 | 14 | 910.0 |
| 20260504004912 | 84 | 184 | 6.0 | 18.0 | 0.00 | 0.00 | 0.00 | 14 | 909.9 |
| 20260504004809 | 84 | 162 | 6.0 | 18.0 | 0.00 | 0.00 | 0.00 | 14 | 909.9 |
| 20260504004705 | 84 | 162 | 6.0 | 18.0 | 0.00 | 0.00 | 0.00 | 14 | 910.0 |
| 20260504004600 | 84 | 177 | 6.0 | 18.0 | 0.00 | 0.00 | 0.00 | 14 | 910.0 |
| 20260504004455 | 84 | 167 | 6.0 | 18.0 | 0.00 | 0.00 | 0.00 | 14 | 910.1 |
| 20260504004351 | 84 | 180 | 6.0 | 18.0 | 0.00 | 0.00 | 0.00 | 14 | 910.1 |
| 20260504004025 | 84 | 164 | 6.0 | 18.0 | 0.00 | 0.00 | 0.00 | 14 | 910.0 |
| 20260504003920 | 84 | 163 | 6.0 | 18.0 | 0.00 | 0.00 | 0.00 | 14 | 910.1 |
| 20260504003813 | 84 | 150 | 5.0 | 18.0 | 0.00 | 0.00 | 0.00 | 14 | 910.0 |
| 20260504003706 | 84 | 152 | 5.0 | 18.0 | 0.00 | 0.00 | 0.00 | 14 | 910.0 |
| 20260504002859 | 84 | 187 | 6.0 | 16.0 | 0.00 | 0.00 | 0.00 | 14 | 910.1 |
| 20260504002751 | 84 | 156 | 6.0 | 16.0 | 0.00 | 0.00 | 0.00 | 14 | 910.1 |
| 20260504002648 | 84 | 189 | 7.0 | 16.0 | 0.00 | 0.00 | 0.00 | 14 | 910.1 |
| 20260504002325 | 84 | 196 | 7.0 | 16.0 | 0.00 | 0.00 | 0.00 | 14 | 910.2 |
| 20260504002218 | 84 | 145 | 7.0 | 16.0 | 0.00 | 0.00 | 0.00 | 14 | 910.1 |
| 20260504002112 | 84 | 150 | 7.0 | 16.0 | 0.00 | 0.00 | 0.00 | 14 | 910.1 |
| 20260504002006 | 84 | 203 | 6.0 | 16.0 | 0.00 | 0.00 | 0.00 | 14 | 910.1 |
| 20260504001901 | 84 | 192 | 6.0 | 16.0 | 0.00 | 0.00 | 0.00 | 14 | 910.0 |
| 20260504001754 | 84 | 175 | 5.0 | 15.0 | 0.00 | 0.00 | 0.00 | 14 | 910.0 |
| 20260504001432 | 84 | 178 | 5.0 | 15.0 | 0.00 | 0.00 | 0.00 | 13 | 910.1 |
| 20260504001326 | 84 | 188 | 5.0 | 15.0 | 0.00 | 0.00 | 0.00 | 13 | 910.1 |
| 20260504001221 | 84 | 190 | 5.0 | 15.0 | 0.00 | 0.00 | 0.00 | 13 | 910.1 |
| 20260504001118 | 84 | 166 | 5.0 | 15.0 | 0.00 | 0.00 | 0.00 | 13 | 910.1 |
| 20260504001011 | 84 | 150 | 5.0 | 15.0 | 0.00 | 0.00 | 0.00 | 13 | 910.1 |
| 20260504000649 | 84 | 161 | 5.0 | 15.0 | 0.00 | 0.00 | 0.00 | 13 | 910.1 |
| 20260504000322 | 84 | 159 | 5.0 | 15.0 | 0.00 | 0.00 | 0.00 | 13 | 910.2 |
| 20260504000219 | 84 | 186 | 5.0 | 15.0 | 0.00 | 0.00 | 0.00 | 13 | 910.2 |
| 20260504000114 | 84 | 248 | 5.0 | 15.0 | 0.00 | 0.00 | 0.00 | 13 | 910.2 |
| 20260503235748 | 84 | 155 | 5.0 | 12.0 | 0.00 | 0.00 | 0.00 | 13 | 910.2 |
| 20260503235424 | 84 | 136 | 5.0 | 20.0 | 0.00 | 0.00 | 0.00 | 13 | 910.2 |
| 20260503235322 | 84 | 187 | 5.0 | 20.0 | 0.00 | 0.00 | 0.00 | 13 | 910.2 |
| 20260503235217 | 84 | 184 | 5.0 | 20.0 | 0.00 | 0.00 | 0.00 | 13 | 910.2 |
| 20260503235113 | 84 | 173 | 5.0 | 20.0 | 0.00 | 0.00 | 0.00 | 13 | 910.2 |
| 20260503234527 | 84 | 198 | 5.0 | 20.0 | 0.00 | 0.00 | 0.00 | 13 | 910.3 |
| 20260503234201 | 84 | 159 | 6.0 | 20.0 | 0.00 | 0.00 | 0.00 | 13 | 910.3 |
| 20260503234057 | 84 | 162 | 7.0 | 20.0 | 0.00 | 0.00 | 0.00 | 13 | 910.3 |
| 20260503233952 | 84 | 176 | 7.0 | 20.0 | 0.00 | 0.00 | 0.00 | 13 | 910.2 |
| 20260503233848 | 84 | 148 | 7.0 | 20.0 | 0.00 | 0.00 | 0.00 | 12 | 910.2 |
| 20260503233743 | 85 | 184 | 7.0 | 20.0 | 0.00 | 0.00 | 0.00 | 12 | 910.1 |
| 20260503233637 | 85 | 170 | 7.0 | 20.0 | 0.00 | 0.00 | 0.00 | 12 | 910.1 |
| 20260503233314 | 85 | 155 | 8.0 | 18.0 | 0.00 | 0.00 | 0.00 | 12 | 910.1 |
| 20260503232730 | 85 | 209 | 8.0 | 21.0 | 0.00 | 0.00 | 0.00 | 12 | 910.1 |
| 20260503232623 | 85 | 157 | 8.0 | 21.0 | 0.00 | 0.00 | 0.00 | 12 | 910.1 |
| 20260503232518 | 85 | 173 | 8.0 | 21.0 | 0.00 | 0.00 | 0.00 | 12 | 910.1 |
| 20260503232414 | 85 | 135 | 8.0 | 21.0 | 0.00 | 0.00 | 0.00 | 12 | 910.1 |
| 20260503232309 | 86 | 173 | 8.0 | 21.0 | 0.00 | 0.00 | 0.00 | 12 | 910.1 |
| 20260503232204 | 86 | 185 | 8.0 | 21.0 | 0.00 | 0.00 | 0.00 | 12 | 910.1 |
| 20260503232100 | 86 | 180 | 8.0 | 21.0 | 0.00 | 0.00 | 0.00 | 11 | 910.1 |
| 20260503231956 | 86 | 180 | 8.0 | 21.0 | 0.00 | 0.00 | 0.00 | 11 | 910.1 |
| 20260503231853 | 86 | 130 | 8.0 | 21.0 | 0.00 | 0.00 | 0.00 | 12 | 910.1 |
| 20260503231745 | 87 | 172 | 8.0 | 21.0 | 0.00 | 0.00 | 0.00 | 11 | 910.1 |
| 20260503230937 | 88 | 191 | 8.0 | 20.0 | 0.00 | 0.00 | 0.00 | 11 | 910.1 |
| 20260503230835 | 88 | 169 | 8.0 | 20.0 | 0.00 | 0.00 | 0.00 | 11 | 910.0 |
| 20260503230513 | 88 | 211 | 8.0 | 20.0 | 0.00 | 0.00 | 0.00 | 12 | 910.0 |
| 20260503230410 | 88 | 173 | 8.0 | 20.0 | 0.00 | 0.00 | 0.00 | 12 | 910.0 |
| 20260503230050 | 88 | 170 | 7.0 | 20.0 | 0.00 | 0.00 | 0.00 | 12 | 909.9 |
| 20260503225946 | 88 | 192 | 7.0 | 17.0 | 0.00 | 0.00 | 0.00 | 12 | 910.0 |
| 20260503225406 | 88 | 205 | 6.0 | 14.0 | 0.00 | 0.00 | 0.00 | 12 | 910.1 |
| 20260503225300 | 88 | 188 | 6.0 | 14.0 | 0.00 | 0.00 | 0.00 | 12 | 910.1 |
| 20260503225156 | 88 | 198 | 6.0 | 12.0 | 0.00 | 0.00 | 0.00 | 12 | 910.1 |
| 20260503225054 | 88 | 182 | 5.0 | 12.0 | 0.00 | 0.00 | 0.00 | 12 | 910.1 |
| 20260503224949 | 88 | 202 | 5.0 | 12.0 | 0.00 | 0.00 | 0.00 | 12 | 910.0 |
| 20260503224841 | 88 | 184 | 5.0 | 11.0 | 0.00 | 0.00 | 0.00 | 12 | 910.1 |
| 20260503224512 | 88 | 184 | 5.0 | 21.0 | 0.00 | 0.00 | 0.00 | 12 | 910.1 |
| 20260503224406 | 88 | 199 | 5.0 | 21.0 | 0.00 | 0.00 | 0.00 | 12 | 910.2 |
| 20260503224303 | 88 | 175 | 5.0 | 21.0 | 0.00 | 0.00 | 0.00 | 12 | 910.2 |
| 20260503224156 | 88 | 173 | 6.0 | 21.0 | 0.00 | 0.00 | 0.00 | 12 | 910.3 |
| 20260503224054 | 88 | 167 | 6.0 | 21.0 | 0.00 | 0.00 | 0.00 | 12 | 910.3 |
| 20260503223731 | 88 | 159 | 7.0 | 21.0 | 0.00 | 0.00 | 0.00 | 12 | 910.4 |
| 20260503223628 | 88 | 194 | 7.0 | 21.0 | 0.00 | 0.00 | 0.00 | 12 | 910.3 |
| 20260503223305 | 88 | 173 | 7.0 | 21.0 | 0.00 | 0.00 | 0.00 | 12 | 910.4 |
| 20260503223158 | 88 | 183 | 7.0 | 21.0 | 0.00 | 0.00 | 0.00 | 12 | 910.4 |
| 20260503223056 | 88 | 155 | 6.0 | 21.0 | 0.00 | 0.00 | 0.00 | 12 | 910.5 |
| 20260503222952 | 88 | 179 | 6.0 | 21.0 | 0.00 | 0.00 | 0.00 | 12 | 910.4 |
| 20260503222849 | 88 | 182 | 6.0 | 21.0 | 0.00 | 0.00 | 0.00 | 12 | 910.4 |
| 20260503222745 | 88 | 168 | 6.0 | 21.0 | 0.00 | 0.00 | 0.00 | 12 | 910.3 |
| 20260503222423 | 88 | 181 | 6.0 | 16.0 | 0.00 | 0.00 | 0.00 | 12 | 910.5 |
| 20260503222320 | 88 | 173 | 6.0 | 16.0 | 0.00 | 0.00 | 0.00 | 12 | 910.5 |
| 20260503222216 | 88 | 170 | 6.0 | 16.0 | 0.00 | 0.00 | 0.00 | 12 | 910.5 |
| 20260503222113 | 88 | 234 | 6.0 | 16.0 | 0.00 | 0.00 | 0.00 | 12 | 910.6 |
| 20260503222010 | 88 | 190 | 5.0 | 16.0 | 0.00 | 0.00 | 0.00 | 12 | 910.6 |
| 20260503221907 | 88 | 178 | 5.0 | 16.0 | 0.00 | 0.00 | 0.00 | 12 | 910.6 |
| 20260503221800 | 88 | 164 | 4.0 | 16.0 | 0.00 | 0.00 | 0.00 | 12 | 910.6 |
| 20260503221437 | 88 | 161 | 3.0 | 20.0 | 0.00 | 0.00 | 0.00 | 12 | 910.7 |
| 20260503221330 | 88 | 154 | 2.0 | 20.0 | 0.00 | 0.00 | 0.00 | 12 | 910.7 |
| 20260503221225 | 88 | 161 | 2.0 | 20.0 | 0.00 | 0.00 | 0.00 | 12 | 910.6 |
| 20260503221118 | 88 | 143 | 2.0 | 20.0 | 0.00 | 0.00 | 0.00 | 13 | 910.7 |
| 20260503221013 | 88 | 140 | 2.0 | 20.0 | 0.00 | 0.00 | 0.00 | 12 | 910.8 |
| 20260503220907 | 88 | 140 | 2.0 | 20.0 | 0.00 | 0.00 | 0.00 | 12 | 910.8 |
| 20260503220543 | 88 | 131 | 5.0 | 20.0 | 0.00 | 0.00 | 0.00 | 12 | 911.0 |
| 20260503220436 | 88 | 80 | 6.0 | 20.0 | 0.00 | 0.00 | 0.00 | 12 | 911.0 |
| 20260503220333 | 88 | 134 | 6.0 | 20.0 | 0.00 | 0.00 | 0.00 | 12 | 910.9 |
| 20260503220231 | 88 | 128 | 7.0 | 20.0 | 0.00 | 0.00 | 0.00 | 12 | 910.9 |
| 20260503220125 | 87 | 167 | 7.0 | 20.0 | 0.00 | 0.00 | 0.00 | 12 | 911.0 |
| 20260503220022 | 87 | 140 | 7.0 | 20.0 | 0.00 | 0.00 | 0.00 | 12 | 911.0 |
| 20260503215653 | 87 | 189 | 8.0 | 20.0 | 0.00 | 0.00 | 0.00 | 12 | 911.2 |
| 20260503215548 | 87 | 180 | 8.0 | 20.0 | 0.00 | 0.00 | 0.00 | 12 | 911.2 |
| 20260503215441 | 87 | 172 | 8.0 | 18.0 | 0.00 | 0.00 | 0.00 | 12 | 911.1 |
| 20260503215335 | 87 | 184 | 8.0 | 18.0 | 0.00 | 0.00 | 0.00 | 13 | 911.1 |
| 20260503215232 | 87 | 178 | 8.0 | 18.0 | 0.00 | 0.00 | 0.00 | 12 | 911.1 |
| 20260503215123 | 87 | 185 | 8.0 | 18.0 | 0.00 | 0.00 | 0.00 | 12 | 911.1 |
| 20260503214759 | 88 | 184 | 7.0 | 18.0 | 0.00 | 0.00 | 0.00 | 12 | 911.2 |
| 20260503214434 | 88 | 198 | 5.0 | 13.0 | 0.00 | 0.00 | 0.00 | 12 | 911.2 |
| 20260503214108 | 88 | 157 | 4.0 | 13.0 | 0.00 | 0.00 | 0.00 | 12 | 911.2 |
| 20260503214005 | 88 | 169 | 5.0 | 13.0 | 0.00 | 0.00 | 0.00 | 12 | 911.1 |
| 20260503213859 | 88 | 162 | 5.0 | 13.0 | 0.00 | 0.00 | 0.00 | 12 | 911.2 |
| 20260503213756 | 88 | 159 | 5.0 | 13.0 | 0.00 | 0.00 | 0.00 | 12 | 911.3 |
| 20260503213651 | 88 | 138 | 5.0 | 13.0 | 0.00 | 0.00 | 0.00 | 12 | 911.2 |
| 20260503213548 | 88 | 139 | 5.0 | 13.0 | 0.00 | 0.00 | 0.00 | 12 | 911.3 |
| 20260503213223 | 88 | 182 | 6.0 | 13.0 | 0.00 | 0.00 | 0.00 | 12 | 911.4 |
| 20260503213117 | 88 | 209 | 6.0 | 13.0 | 0.00 | 0.00 | 0.00 | 12 | 911.4 |
| 20260503213014 | 88 | 173 | 6.0 | 13.0 | 0.00 | 0.00 | 0.00 | 12 | 911.4 |
| 20260503212909 | 88 | 123 | 6.0 | 13.0 | 0.00 | 0.00 | 0.00 | 12 | 911.3 |
| 20260503212544 | 88 | 194 | 7.0 | 13.0 | 0.00 | 0.00 | 0.00 | 12 | 911.4 |
| 20260503212439 | 88 | 153 | 6.0 | 13.0 | 0.00 | 0.00 | 0.00 | 12 | 911.4 |
| 20260503212110 | 88 | 208 | 6.0 | 13.0 | 0.00 | 0.00 | 0.00 | 12 | 911.4 |
| 20260503212005 | 88 | 168 | 6.0 | 13.0 | 0.00 | 0.00 | 0.00 | 12 | 911.5 |
| 20260503211858 | 88 | 154 | 6.0 | 13.0 | 0.00 | 0.00 | 0.00 | 12 | 911.5 |
| 20260503211754 | 88 | 179 | 5.0 | 13.0 | 0.00 | 0.00 | 0.00 | 12 | 911.5 |
| 20260503211652 | 88 | 197 | 5.0 | 12.0 | 0.00 | 0.00 | 0.00 | 12 | 911.5 |
| 20260503211550 | 88 | 150 | 5.0 | 12.0 | 0.00 | 0.00 | 0.00 | 12 | 911.5 |
| 20260503211225 | 88 | 185 | 5.0 | 12.0 | 0.00 | 0.00 | 0.00 | 12 | 911.5 |
| 20260503211119 | 87 | 129 | 5.0 | 12.0 | 0.00 | 0.00 | 0.00 | 12 | 911.6 |
| 20260503211013 | 87 | 180 | 5.0 | 12.0 | 0.00 | 0.00 | 0.00 | 12 | 911.6 |
| 20260503210907 | 87 | 171 | 5.0 | 12.0 | 0.00 | 0.00 | 0.00 | 12 | 911.5 |
| 20260503210543 | 87 | 142 | 3.0 | 10.0 | 0.00 | 0.00 | 0.00 | 13 | 911.5 |
| 20260503210438 | 86 | 173 | 2.0 | 10.0 | 0.00 | 0.00 | 0.00 | 13 | 911.5 |
| 20260503210116 | 86 | 153 | 1.0 | 6.0 | 0.00 | 0.00 | 0.00 | 13 | 911.6 |
| 20260503210011 | 86 | 142 | 1.0 | 6.0 | 0.00 | 0.00 | 0.00 | 13 | 911.6 |
| 20260503205904 | 85 | 185 | 1.0 | 6.0 | 0.00 | 0.00 | 0.00 | 13 | 911.7 |
| 20260503205802 | 85 | 141 | 1.0 | 6.0 | 0.00 | 0.00 | 0.00 | 13 | 911.8 |
| 20260503205655 | 85 | 144 | 1.0 | 8.0 | 0.00 | 0.00 | 0.00 | 13 | 911.7 |
| 20260503205553 | 85 | 192 | 1.0 | 8.0 | 0.00 | 0.00 | 0.00 | 14 | 911.7 |
| 20260503205448 | 85 | 188 | 2.0 | 8.0 | 0.00 | 0.00 | 0.00 | 13 | 911.8 |
| 20260503205344 | 85 | 169 | 2.0 | 8.0 | 0.00 | 0.00 | 0.00 | 13 | 911.8 |
| 20260503205241 | 85 | 169 | 2.0 | 8.0 | 0.00 | 0.00 | 0.00 | 13 | 911.8 |
| 20260503205135 | 85 | 155 | 2.0 | 8.0 | 0.00 | 0.00 | 0.00 | 13 | 911.8 |
| 20260503204333 | 85 | 155 | 2.0 | 9.0 | 0.00 | 0.00 | 0.00 | 13 | 911.9 |
| 20260503204230 | 85 | 140 | 2.0 | 9.0 | 0.00 | 0.00 | 0.00 | 13 | 911.9 |
| 20260503204127 | 86 | 168 | 2.0 | 9.0 | 0.00 | 0.00 | 0.00 | 13 | 912.0 |
| 20260503204022 | 86 | 154 | 2.0 | 9.0 | 0.00 | 0.00 | 0.00 | 13 | 912.0 |
| 20260503203917 | 86 | 164 | 3.0 | 9.0 | 0.00 | 0.00 | 0.00 | 13 | 912.0 |
| 20260503203815 | 86 | 154 | 3.0 | 9.0 | 0.00 | 0.00 | 0.00 | 13 | 912.1 |
| 20260503203451 | 86 | 179 | 2.0 | 11.0 | 0.00 | 0.00 | 0.00 | 13 | 912.2 |
| 20260503203345 | 86 | 127 | 3.0 | 11.0 | 0.00 | 0.00 | 0.00 | 13 | 912.2 |
| 20260503203243 | 86 | 129 | 3.0 | 11.0 | 0.00 | 0.00 | 0.00 | 13 | 912.1 |
| 20260503203136 | 86 | 134 | 3.0 | 11.0 | 0.00 | 0.00 | 0.00 | 13 | 912.1 |
| 20260503203029 | 86 | 180 | 4.0 | 11.0 | 0.00 | 0.00 | 0.00 | 13 | 912.1 |
| 20260503202445 | 87 | 191 | 4.0 | 11.0 | 0.00 | 0.00 | 0.00 | 13 | 912.3 |
| 20260503202340 | 87 | 167 | 4.0 | 11.0 | 0.00 | 0.00 | 0.00 | 13 | 912.3 |
| 20260503202234 | 87 | 210 | 4.0 | 11.0 | 0.00 | 0.00 | 0.00 | 13 | 912.4 |
| 20260503201650 | 87 | 178 | 3.0 | 8.0 | 0.00 | 0.00 | 0.00 | 13 | 912.5 |
| 20260503201547 | 86 | 158 | 3.0 | 11.0 | 0.00 | 0.00 | 0.00 | 13 | 912.5 |
| 20260503201441 | 86 | 148 | 4.0 | 11.0 | 0.00 | 0.00 | 0.00 | 13 | 912.5 |
| 20260503201338 | 86 | 188 | 4.0 | 11.0 | 0.00 | 0.00 | 0.00 | 13 | 912.5 |
| 20260503201011 | 86 | 169 | 5.0 | 11.0 | 0.00 | 0.00 | 0.00 | 13 | 912.5 |
| 20260503200905 | 86 | 192 | 5.0 | 11.0 | 0.00 | 0.00 | 0.00 | 13 | 912.5 |
| 20260503200801 | 86 | 173 | 5.0 | 11.0 | 0.00 | 0.00 | 0.00 | 13 | 912.6 |
| 20260503200431 | 86 | 186 | 5.0 | 11.0 | 0.00 | 0.00 | 0.00 | 13 | 912.6 |
| 20260503200328 | 86 | 174 | 5.0 | 11.0 | 0.00 | 0.00 | 0.00 | 13 | 912.5 |
| 20260503200222 | 86 | 200 | 4.0 | 11.0 | 0.00 | 0.00 | 0.00 | 13 | 912.6 |
| 20260503195900 | 87 | 181 | 3.0 | 11.0 | 0.00 | 0.00 | 0.00 | 12 | 912.6 |
| 20260503195758 | 87 | 205 | 3.0 | 11.0 | 0.00 | 0.00 | 0.00 | 13 | 912.6 |
| 20260503195650 | 86 | 144 | 3.0 | 11.0 | 0.00 | 0.00 | 0.00 | 13 | 912.6 |
| 20260503195542 | 86 | 169 | 2.0 | 8.0 | 0.00 | 0.00 | 0.00 | 13 | 912.6 |
| 20260503195436 | 86 | 188 | 2.0 | 7.0 | 0.00 | 0.00 | 0.00 | 13 | 912.6 |
| 20260503195111 | 86 | 142 | 2.0 | 7.0 | 0.00 | 0.00 | 0.00 | 13 | 912.7 |
| 20260503195008 | 86 | 179 | 2.0 | 9.0 | 0.00 | 0.00 | 0.00 | 13 | 912.7 |
| 20260503194904 | 86 | 117 | 2.0 | 9.0 | 0.00 | 0.00 | 0.00 | 13 | 912.7 |
| 20260503194801 | 86 | 135 | 2.0 | 9.0 | 0.00 | 0.00 | 0.00 | 13 | 912.8 |
| 20260503194656 | 86 | 105 | 2.0 | 9.0 | 0.00 | 0.00 | 0.00 | 13 | 912.8 |
| 20260503194332 | 86 | 164 | 2.0 | 9.0 | 0.00 | 0.00 | 0.00 | 13 | 913.0 |
| 20260503194223 | 86 | 121 | 2.0 | 9.0 | 0.00 | 0.00 | 0.00 | 13 | 912.9 |
| 20260503194116 | 86 | 111 | 2.0 | 9.0 | 0.00 | 0.00 | 0.00 | 13 | 912.9 |
| 20260503194014 | 86 | 97 | 2.0 | 10.0 | 0.00 | 0.00 | 0.00 | 13 | 912.8 |
| 20260503193908 | 86 | 86 | 2.0 | 10.0 | 0.00 | 0.00 | 0.00 | 13 | 912.9 |
| 20260503193544 | 86 | 220 | 3.0 | 10.0 | 0.00 | 0.00 | 0.00 | 13 | 912.9 |
| 20260503193437 | 86 | 167 | 3.0 | 10.0 | 0.00 | 0.00 | 0.00 | 13 | 913.1 |
| 20260503193335 | 86 | 130 | 3.0 | 10.0 | 0.00 | 0.00 | 0.00 | 13 | 913.1 |
| 20260503193229 | 86 | 126 | 4.0 | 10.0 | 0.00 | 0.00 | 0.00 | 13 | 913.1 |
| 20260503193123 | 86 | 146 | 4.0 | 10.0 | 0.00 | 0.00 | 0.00 | 13 | 913.2 |
| 20260503193019 | 86 | 105 | 4.0 | 10.0 | 0.00 | 0.00 | 0.00 | 13 | 913.2 |
| 20260503192917 | 86 | 163 | 4.0 | 10.0 | 0.00 | 0.00 | 0.00 | 13 | 913.3 |
| 20260503192811 | 86 | 144 | 4.0 | 10.0 | 0.00 | 0.00 | 0.00 | 13 | 913.3 |
| 20260503192708 | 86 | 177 | 4.0 | 10.0 | 0.00 | 0.00 | 0.00 | 13 | 913.3 |
| 20260503192606 | 86 | 125 | 4.0 | 10.0 | 0.00 | 0.00 | 0.00 | 12 | 913.4 |
| 20260503192504 | 86 | 158 | 4.0 | 10.0 | 0.00 | 0.00 | 0.00 | 12 | 913.4 |
| 20260503192358 | 87 | 138 | 4.0 | 10.0 | 0.00 | 0.00 | 0.00 | 12 | 913.4 |
| 20260503192252 | 87 | 136 | 4.0 | 10.0 | 0.00 | 0.00 | 0.00 | 12 | 913.4 |
| 20260503192147 | 87 | 180 | 4.0 | 10.0 | 0.00 | 0.00 | 0.00 | 12 | 913.4 |
| 20260503192042 | 87 | 124 | 3.0 | 10.0 | 0.00 | 0.00 | 0.00 | 12 | 913.4 |
| 20260503191936 | 87 | 150 | 3.0 | 9.0 | 0.00 | 0.00 | 0.00 | 12 | 913.4 |
| 20260503191830 | 87 | 146 | 3.0 | 12.0 | 0.00 | 0.00 | 0.00 | 12 | 913.4 |
| 20260503191724 | 87 | 106 | 3.0 | 12.0 | 0.00 | 0.00 | 0.00 | 13 | 913.3 |
| 20260503191617 | 87 | 137 | 3.0 | 12.0 | 0.00 | 0.00 | 0.00 | 13 | 913.3 |
| 20260503191516 | 87 | 105 | 3.0 | 12.0 | 0.00 | 0.00 | 0.00 | 13 | 913.3 |
| 20260503191152 | 87 | 161 | 4.0 | 12.0 | 0.00 | 0.00 | 0.00 | 12 | 913.5 |
| 20260503190826 | 87 | 157 | 4.0 | 15.0 | 0.00 | 0.00 | 0.00 | 13 | 913.5 |
| 20260503190719 | 87 | 121 | 4.0 | 15.0 | 0.00 | 0.00 | 0.00 | 12 | 913.5 |
| 20260503190617 | 87 | 124 | 4.0 | 15.0 | 0.00 | 0.00 | 0.00 | 13 | 913.5 |
| 20260503190511 | 87 | 88 | 4.0 | 15.0 | 0.00 | 0.00 | 0.00 | 13 | 913.5 |
| 20260503190407 | 86 | 137 | 4.0 | 15.0 | 0.00 | 0.00 | 0.00 | 12 | 913.5 |
| 20260503190303 | 86 | 164 | 4.0 | 15.0 | 0.00 | 0.00 | 0.00 | 12 | 913.5 |
| 20260503190200 | 86 | 159 | 4.0 | 15.0 | 0.00 | 0.00 | 0.00 | 13 | 913.5 |
| 20260503185618 | 86 | 138 | 6.0 | 15.0 | 0.00 | 0.00 | 0.00 | 13 | 913.6 |
| 20260503185255 | 86 | 187 | 6.0 | 15.0 | 0.00 | 0.00 | 0.00 | 13 | 913.6 |
| 20260503185153 | 86 | 136 | 6.0 | 15.0 | 0.00 | 0.00 | 0.00 | 13 | 913.6 |
| 20260503185051 | 85 | 169 | 5.0 | 15.0 | 0.00 | 0.00 | 0.00 | 13 | 913.7 |
| 20260503184944 | 85 | 138 | 5.0 | 15.0 | 0.00 | 0.00 | 0.00 | 13 | 913.7 |
| 20260503184837 | 85 | 186 | 4.0 | 13.0 | 0.00 | 0.00 | 0.00 | 13 | 913.7 |
| 20260503184730 | 85 | 126 | 4.0 | 11.0 | 0.00 | 0.00 | 0.00 | 13 | 913.8 |
| 20260503184624 | 85 | 170 | 4.0 | 10.0 | 0.00 | 0.00 | 0.00 | 13 | 913.9 |
| 20260503184519 | 85 | 144 | 4.0 | 12.0 | 0.00 | 0.00 | 0.00 | 13 | 913.7 |
| 20260503184417 | 85 | 147 | 3.0 | 12.0 | 0.00 | 0.00 | 0.00 | 13 | 913.8 |
| 20260503184311 | 85 | 200 | 3.0 | 12.0 | 0.00 | 0.00 | 0.00 | 14 | 913.7 |
| 20260503184205 | 85 | 140 | 2.0 | 12.0 | 0.00 | 0.00 | 0.00 | 14 | 913.7 |
| 20260503184101 | 85 | 103 | 2.0 | 12.0 | 0.00 | 0.00 | 0.00 | 14 | 913.7 |
| 20260503183957 | 85 | 248 | 2.0 | 12.0 | 0.00 | 0.00 | 0.00 | 14 | 913.8 |
| 20260503183854 | 85 | 91 | 2.0 | 12.0 | 0.00 | 0.00 | 0.00 | 14 | 913.8 |
| 20260503183750 | 85 | 136 | 2.0 | 12.0 | 0.00 | 0.00 | 0.00 | 13 | 913.9 |
| 20260503183649 | 85 | 132 | 2.0 | 12.0 | 0.00 | 0.00 | 0.00 | 13 | 913.8 |
| 20260503183544 | 85 | 153 | 2.0 | 12.0 | 0.00 | 0.00 | 0.00 | 13 | 913.9 |
| 20260503183442 | 85 | 135 | 3.0 | 12.0 | 0.00 | 0.00 | 0.00 | 13 | 913.9 |
| 20260503183335 | 85 | 154 | 3.0 | 12.0 | 0.00 | 0.00 | 0.00 | 13 | 913.9 |
| 20260503183008 | 85 | 75 | 3.0 | 12.0 | 0.00 | 0.00 | 0.00 | 13 | 914.0 |
| 20260503182642 | 85 | 114 | 3.0 | 12.0 | 0.00 | 0.00 | 0.00 | 14 | 914.0 |
| 20260503182536 | 85 | 166 | 3.0 | 9.0 | 0.00 | 0.00 | 0.00 | 14 | 914.0 |
| 20260503182434 | 84 | 136 | 3.0 | 9.0 | 0.00 | 0.00 | 0.00 | 13 | 914.1 |
| 20260503182331 | 84 | 124 | 3.0 | 9.0 | 0.00 | 0.00 | 0.00 | 13 | 914.1 |
| 20260503182224 | 84 | 148 | 3.0 | 9.0 | 0.00 | 0.00 | 0.00 | 13 | 914.1 |
| 20260503181637 | 84 | 181 | 2.0 | 9.0 | 0.00 | 0.00 | 0.00 | 14 | 914.2 |
| 20260503181536 | 84 | 198 | 2.0 | 9.0 | 0.00 | 0.00 | 0.00 | 14 | 914.2 |
| 20260503181432 | 83 | 159 | 2.0 | 9.0 | 0.00 | 0.00 | 0.00 | 14 | 914.2 |
| 20260503181327 | 83 | 130 | 2.0 | 9.0 | 0.00 | 0.00 | 0.00 | 14 | 914.2 |
| 20260503180739 | 82 | 196 | 1.0 | 4.0 | 0.00 | 0.00 | 0.00 | 15 | 914.3 |
| 20260503180637 | 82 | 209 | 1.0 | 4.0 | 0.00 | 0.00 | 0.00 | 14 | 914.3 |
| 20260503180530 | 82 | 180 | 1.0 | 4.0 | 0.00 | 0.00 | 0.00 | 14 | 914.4 |
| 20260503180423 | 82 | 167 | 1.0 | 4.0 | 0.00 | 0.00 | 0.00 | 14 | 914.4 |
| 20260503180058 | 82 | 142 | 2.0 | 5.0 | 0.00 | 0.00 | 0.00 | 14 | 914.5 |
| 20260503175736 | 82 | 157 | 2.0 | 5.0 | 0.00 | 0.00 | 0.00 | 14 | 914.6 |
| 20260503175629 | 82 | 144 | 2.0 | 5.0 | 0.00 | 0.00 | 0.00 | 14 | 914.6 |
| 20260503175527 | 82 | 182 | 2.0 | 5.0 | 0.00 | 0.00 | 0.00 | 14 | 914.6 |
| 20260503175424 | 82 | 171 | 2.0 | 5.0 | 0.00 | 0.00 | 0.00 | 14 | 914.6 |
| 20260503175322 | 82 | 183 | 2.0 | 6.0 | 0.00 | 0.00 | 0.00 | 14 | 914.6 |
| 20260503175220 | 82 | 184 | 2.0 | 6.0 | 0.00 | 0.00 | 0.00 | 14 | 914.6 |
| 20260503175113 | 82 | 198 | 2.0 | 6.0 | 0.00 | 0.00 | 0.00 | 14 | 914.6 |
| 20260503175006 | 82 | 167 | 2.0 | 6.0 | 0.00 | 0.00 | 0.00 | 14 | 914.7 |
| 20260503174641 | 82 | 181 | 2.0 | 6.0 | 0.00 | 0.00 | 0.00 | 14 | 914.6 |
| 20260503174538 | 82 | 169 | 2.0 | 6.0 | 0.00 | 0.00 | 0.00 | 14 | 914.6 |
| 20260503174431 | 82 | 171 | 2.0 | 6.0 | 0.00 | 0.00 | 0.00 | 14 | 914.6 |
| 20260503174329 | 82 | 166 | 2.0 | 8.0 | 0.00 | 0.00 | 0.00 | 14 | 914.6 |
| 20260503174224 | 82 | 152 | 2.0 | 8.0 | 0.00 | 0.00 | 0.00 | 14 | 914.7 |
| 20260503173857 | 82 | 140 | 2.0 | 8.0 | 0.00 | 0.00 | 0.00 | 14 | 914.7 |
| 20260503173752 | 82 | 164 | 2.0 | 8.0 | 0.00 | 0.00 | 0.00 | 14 | 914.7 |
| 20260503173431 | 82 | 151 | 2.0 | 8.0 | 0.00 | 0.00 | 0.00 | 14 | 914.8 |
| 20260503173106 | 81 | 180 | 2.0 | 8.0 | 0.00 | 0.00 | 0.00 | 15 | 914.9 |
| 20260503172959 | 81 | 147 | 1.0 | 8.0 | 0.00 | 0.00 | 0.00 | 15 | 914.9 |
| 20260503172853 | 81 | 180 | 1.0 | 8.0 | 0.00 | 0.00 | 0.00 | 14 | 914.9 |
| 20260503172749 | 81 | 198 | 1.0 | 8.0 | 0.00 | 0.00 | 0.00 | 15 | 914.9 |
| 20260503172644 | 81 | 196 | 1.0 | 8.0 | 0.00 | 0.00 | 0.00 | 15 | 914.9 |
| 20260503172542 | 81 | 180 | 1.0 | 8.0 | 0.00 | 0.00 | 0.00 | 14 | 914.9 |
| 20260503172433 | 81 | 140 | 1.0 | 8.0 | 0.00 | 0.00 | 0.00 | 15 | 914.9 |
| 20260503172326 | 81 | 142 | 1.0 | 4.0 | 0.00 | 0.00 | 0.00 | 15 | 915.0 |
| 20260503172218 | 81 | 167 | 1.0 | 4.0 | 0.00 | 0.00 | 0.00 | 14 | 914.9 |
| 20260503171855 | 80 | 152 | 1.0 | 6.0 | 0.00 | 0.00 | 0.00 | 14 | 915.1 |
| 20260503171752 | 80 | 148 | 1.0 | 6.0 | 0.00 | 0.00 | 0.00 | 14 | 915.0 |
| 20260503171647 | 80 | 148 | 1.0 | 6.0 | 0.00 | 0.00 | 0.00 | 14 | 915.1 |
| 20260503171542 | 80 | 175 | 2.0 | 6.0 | 0.00 | 0.00 | 0.00 | 14 | 915.1 |
| 20260503171440 | 81 | 195 | 2.0 | 6.0 | 0.00 | 0.00 | 0.00 | 14 | 915.1 |
| 20260503171337 | 81 | 157 | 2.0 | 6.0 | 0.00 | 0.00 | 0.00 | 13 | 915.1 |
| 20260503171015 | 81 | 210 | 2.0 | 6.0 | 0.00 | 0.00 | 0.00 | 13 | 915.1 |
| 20260503170907 | 81 | 172 | 2.0 | 6.0 | 0.00 | 0.00 | 0.00 | 13 | 915.1 |
| 20260503170804 | 81 | 198 | 2.0 | 6.0 | 0.00 | 0.00 | 0.00 | 13 | 915.1 |
| 20260503170657 | 81 | 210 | 2.0 | 6.0 | 0.00 | 0.00 | 0.00 | 13 | 915.0 |
| 20260503170550 | 81 | 169 | 2.0 | 6.0 | 0.00 | 0.00 | 0.00 | 13 | 915.0 |
| 20260503170448 | 81 | 168 | 2.0 | 6.0 | 0.00 | 0.00 | 0.00 | 13 | 915.0 |
| 20260503170344 | 81 | 153 | 2.0 | 6.0 | 0.00 | 0.00 | 0.00 | 12 | 915.1 |
| 20260503150956 | 70 | 260 | 0.0 | 1.0 | 0.00 | 0.00 | 0.00 | 17 | 915.9 |
| 20260503150853 | 70 | 259 | 0.0 | 1.0 | 0.00 | 0.00 | 0.00 | 17 | 915.9 |
| 20260503150747 | 70 | 259 | 0.0 | 1.0 | 0.00 | 0.00 | 0.00 | 17 | 915.9 |
| 20260503150643 | 69 | 273 | 0.0 | 1.0 | 0.00 | 0.00 | 0.00 | 17 | 915.9 |
| 20260503150537 | 69 | 273 | 0.0 | 1.0 | 0.00 | 0.00 | 0.00 | 17 | 915.9 |
| 20260503150210 | 69 | 266 | 0.0 | 1.0 | 0.00 | 0.00 | 0.00 | 17 | 916.0 |
| 20260503150106 | 69 | 241 | 0.0 | 1.0 | 0.00 | 0.00 | 0.00 | 17 | 916.0 |
| 20260503140217 | 64 | 42 | 1.0 | 0.0 | 0.00 | 0.00 | 0.00 | 18 | 915.8 |
| 20260503140115 | 64 | 42 | 1.0 | 3.0 | 0.00 | 0.00 | 0.00 | 18 | 915.8 |
| 20260503131218 | 59 | 9 | 0.0 | 1.0 | 0.00 | 0.00 | 0.00 | 17 | 915.8 |
| 20260503131116 | 59 | 9 | 0.0 | 1.0 | 0.00 | 0.00 | 0.00 | 18 | 915.7 |
| 20260503131012 | 59 | 9 | 0.0 | 1.0 | 0.00 | 0.00 | 0.00 | 17 | 915.7 |
| 20260503130905 | 59 | 9 | 0.0 | 1.0 | 0.00 | 0.00 | 0.00 | 17 | 915.7 |
| 20260503130759 | 59 | 17 | 0.0 | 0.0 | 0.00 | 0.00 | 0.00 | 17 | 915.7 |
| 20260503130653 | 59 | 25 | 0.0 | 0.0 | 0.00 | 0.00 | 0.00 | 17 | 915.8 |
| 20260503130549 | 59 | 25 | 0.0 | 0.0 | 0.00 | 0.00 | 0.00 | 17 | 915.7 |
| 20260503130445 | 59 | 25 | 0.0 | 2.0 | 0.00 | 0.00 | 0.00 | 17 | 915.6 |
| 20260503130339 | 59 | 25 | 0.0 | 2.0 | 0.00 | 0.00 | 0.00 | 17 | 915.6 |
| 20260503130235 | 59 | 25 | 0.0 | 2.0 | 0.00 | 0.00 | 0.00 | 17 | 915.6 |
| 20260503130132 | 59 | 25 | 0.0 | 0.0 | 0.00 | 0.00 | 0.00 | 17 | 915.6 |